COSMOS 2084

Last updated on Sun Aug 09 2026 00:02:09 GMT+0000 (Coordinated Universal Time)

1 20663U 90055A 26220.24374712 .00001133 00000+0 90449-4 0 9995 2 20663 62.7883 178.3863 0011327 334.8032 25.2515 15.06302899959147
UTC large
Height (km)
Speed (km/s)
/
Latitude / Longitude
Inclination (degrees)
Orbital Period (minutes)
Azimuth
Elevation
Range (km)
Doppler Factor

Next 0 passes for location: London (51.5072 / 0.1276)

No passes found over London.
COSMOS 2084